Regional Weather Roundup
Issued by NWS

Home | Current Version | Previous Version | Graphics & Text | Print | Product List | Glossary Off
Versions: 1 2 3 4 5 6 7 8 9 10 11 12 13 14 15 16 17 18 19 20 21 22 23 24 25 26 27 28 29 30 31 32 33 34 35 36 37 38 39 40 41 42 43 44 45 46 47 48 49 50

000
ASUS43 KMKX 240210
RWRWI

WISCONSIN REGIONAL WEATHER ROUNDUP
NATIONAL WEATHER SERVICE MILWAUKEE/SULLIVAN WI
800 PM CST FRI FEB 23 2018

NOTE: "FAIR" INDICATES FEW OR NO CLOUDS BELOW 12,000 FEET WITH NO
SIGNIFICANT WEATHER AND/OR OBSTRUCTIONS TO VISIBILITY.

WIZ001-002-006>008-014>016-023>028-240300-
NORTHWEST WISCONSIN

CITY           SKY/WX    TMP DP  RH WIND       PRES   REMARKS
SUPERIOR ARPT  CLOUDY    32  23  70 W5        30.21R WCI  27
ASHLAND        CLOUDY    31  22  69 SW7       30.20R WCI  24
HAYWARD        FAIR      25  20  81 SW5       30.21R WCI  19
SIREN          FAIR      25  19  78 W5        30.23S WCI  19
CUMBERLAND     FAIR      12  10  92 SW3       30.22F
RICE LAKE      FAIR      18  17  95 S3        30.25S
CHETEK         FAIR      21  19  89 SW3       30.24S
LADYSMITH      FAIR      26  20  79 SW5       30.24R WCI  20
EAU CLAIRE     FAIR      22  18  85 SW7       30.26S FOG     WCI  13
MENOMONIE      FAIR      24  19  81 SW6       30.27S WCI  17
NEW RICHMOND   FAIR      21  17  84 SW7       30.26S WCI  13
OSCEOLA        FAIR      21  17  83 W7        30.29R WCI  13
$$

WIZ003>005-009-010-017-018-240300-
NORTH CENTRAL WISCONSIN

CITY           SKY/WX    TMP DP  RH WIND       PRES   REMARKS
MANITOWISH WTR CLOUDY    27  25  93 SW6       30.17R WCI  20
ARBOR VITAE    CLOUDY    29  25  85 W6        30.17R WCI  23
WOODRUFF       CLOUDY    29  25  85 W6        30.17R WCI  23
RHINELANDER    CLOUDY    28  23  81 W9        30.18R WCI  19
EAGLE RIVER    CLOUDY    28  22  79 W8        30.16R WCI  19
LAND O LAKES   CLOUDY    28  24  85 W3        30.17R
PHILLIPS       FAIR      25  21  87 SW5       30.19S WCI  19
TOMAHAWK       CLOUDY    26  22  84 CALM      30.20R
MEDFORD        CLOUDY    25  21  83 W7        30.21S WCI  18
MERRILL        CLOUDY    28  22  79 W8        30.22R WCI  20
$$

WIZ029-030-035-036-043>047-240300-
CENTRAL WISCONSIN

CITY           SKY/WX    TMP DP  RH WIND       PRES   REMARKS
WAUSAU         CLOUDY    28  21  75 NW12      30.20R WCI  18
MOSINEE        CLOUDY    27  23  86 W12G20    30.23R WCI  16
MARSHFIELD     CLOUDY    27  21  78 W13       30.22R WCI  16
STEVENS POINT  CLOUDY    27  20  75 W9        30.23S WCI  18
WAUPACA        CLOUDY    33  25  71 W3        30.24R
WAUTOMA        CLOUDY    30  23  75 W9        30.25R WCI  22
WISC RAPIDS    CLOUDY    29  20  69 NW6       30.25R WCI  23
CAMP DOUGLAS   CLOUDY    28  22  80 NW12      30.26R WCI  18
$$

WIZ011>013-019>022-031-037>040-048>050-240300-
NORTHEAST WISCONSIN

CITY           SKY/WX    TMP DP  RH WIND       PRES   REMARKS
ANTIGO         CLOUDY    27  22  80 W12G17    30.19R WCI  17
SHAWANO        CLOUDY    33  25  70 W7        30.21S WCI  27
OCONTO         CLOUDY    33  25  72 W7        30.21R WCI  27
STURGEON BAY   CLOUDY    33  26  75 MISG      30.20R
GREEN BAY      CLOUDY    33  23  66 NW16      30.23R WCI  23
MANITOWOC      CLOUDY    33  25  72 MISG      30.23R
APPLETON       CLOUDY    30  21  69 W14       30.21R WCI  20
CLINTONVILLE   CLOUDY    32  22  67 NW9G18    30.23S WCI  24
OSHKOSH        CLOUDY    32  25  75 W8        30.23R WCI  25
$$

WIZ032>034-041-042-053>061-240300-
SOUTHWEST WISCONSIN

CITY           SKY/WX    TMP DP  RH WIND       PRES   REMARKS
LA CROSSE      CLOUDY    26  21  81 W9        30.30R HAZE    WCI  17
SPARTA         CLOUDY    28  23  82 W6        30.29S WCI  21
VIROQUA        FAIR      26  24  93 NW9       30.25S WCI  16
BOSCOBEL       FAIR      30  23  75 W3        30.28S
PRAIRIE DU CHI FAIR      29  23  77 NW6       30.29S WCI  23
PLATTEVILLE    FAIR      30  28  91 NW9       30.24F WCI  21
$$

WIZ056-057-062-063-064-067-068-240300-
SOUTH CENTRAL WISCONSIN

CITY           SKY/WX    TMP DP  RH WIND       PRES   REMARKS
REEDSBURG      FAIR      28  24  82 NW6       30.25R WCI  22
BARABOO/DELLS  FAIR      29  24  82 NW3       30.24S
LONE ROCK      FAIR      31  25  78 NW7       30.27R WCI  24
MINERAL POINT  FAIR      32  30  93 NW7       30.23F WCI  26
MADISON        MOCLDY    32  26  78 CALM      30.25R
MIDDLETON      FAIR      33  27  81 W7        30.24S WCI  26
WATERTOWN      FAIR      32  31  95 CALM      30.23S
MONROE         FAIR      32  28  86 W9        30.23R WCI  24
JANESVILLE     CLOUDY    34  32  93 CALM      30.23F
$$

WIZ051-052-058>065-066-070>072-240300-
SOUTHEAST WISCONSIN

CITY           SKY/WX    TMP DP  RH WIND       PRES   REMARKS
MILWAUKEE      MOCLDY    37  30  75 W5        30.23S WCI  33
WAUKESHA       MOCLDY    32  28  86 W6        30.23S WCI  26
MILWAUKEE/TIMM CLOUDY    36  27  69 W6        30.23S WCI  31
RACINE         FAIR      33  30  88 CALM      30.25S
BURLINGTON     FAIR      32  29  87 CALM      30.23F
KENOSHA        FAIR      33  29  85 W5        30.24S WCI  29
FOND DU LAC    CLOUDY    32  24  72 NW10      30.23R WCI  24
SHEBOYGAN      CLOUDY    33  28  81 NW8       30.23R WCI  26
WEST BEND      FAIR      32  30  93 NW6       30.23R WCI  26
JUNEAU         FAIR      31  26  83 NW7       30.24S WCI  24
$$

LSZ147-162-240300-
LAKE SUPERIOR

STATION/POSITION TIME  TEMP    WIND        PRES    WAVE
                       AIR SEA DIR/SP/G            HT/PER
                 (UTC) (F)     (DEG/KT/KT) (MB)    (FT/S)
DEVILS ISLAND    0200   31     290/ 16/ 17 1023.1R
SAXON HARBOR     0140   31     200/  5/  7 1022.4R
$$

LMZ867-665-643>646-240300-
LAKE MICHIGAN

STATION/POSITION TIME  TEMP    WIND        PRES    WAVE
                       AIR SEA DIR/SP/G            HT/PER
                 (UTC) (F)     (DEG/KT/KT) (MB)    (FT/S)
NORTHPORT PIER   0140   35                 1022.0R
KEWAUNEE LAKESHO 0142   34     290/  6/  9 1022.2R
SHEBOYGAN LAKESH 0200   34     310/  9/ 12 1024.3R
PORT WASHINGTON  0130   36     290/  4/  9 1024.7S
KENOSHA   LAKESH 0200   36     270/  1/  3 1024.0
$$

TC  - TEMPERATURE IN CELSIUS
VSB - VISIBILITY IN STATUTE MILES
WCI - WIND CHILL INDEX
HX  - HEAT INDEX





USA.gov is the U.S. government's official web portal to all federal, state and local government web resources and services.